This is the latest recevied weather packets stored in our database for station/object K9JWM. If no packets are shown the sender has not sent any weather packets the latest 10 day(s).
| Time | Temp. | Humidity | Pressure | Rain* | Wind** | Luminosity | Snow |
|---|---|---|---|---|---|---|---|
| 1778224631 | -1.67° C | 84% | 1008.8 hPa | 0 mm | - | - | - |
| 1778223731 | -1.11° C | 84% | 1008.9 hPa | 0 mm | - | - | - |
| 1778222830 | -1.11° C | 83% | 1009 hPa | 0 mm | - | - | - |
| 1778221931 | -1.11° C | 83% | 1009.1 hPa | 0 mm | - | - | - |
| 1778221030 | -1.11° C | 82% | 1009 hPa | 0 mm | - | - | - |
| 1778220130 | -0.56° C | 82% | 1009.2 hPa | 0 mm | - | - | - |
| 1778219231 | -0.56° C | 81% | 1009.2 hPa | 0 mm | - | - | - |
| 1778218330 | 0° C | 80% | 1009.4 hPa | 0 mm | - | - | - |
| 1778217430 | 0° C | 79% | 1009.4 hPa | 0 mm | - | - | - |
| 1778216531 | 0.56° C | 78% | 1009.4 hPa | 0 mm | - | - | - |
| 1778215630 | 1.11° C | 76% | 1009.4 hPa | 0 mm | - | - | - |
| 1778214731 | 1.67° C | 74% | 1009.3 hPa | 0 mm | - | - | - |
| 1778213829 | 1.67° C | 74% | 1009.3 hPa | 0 mm | - | - | - |
| 1778212930 | 2.22° C | 73% | 1009.5 hPa | 0 mm | - | - | - |
| 1778212030 | 2.22° C | 72% | 1009.4 hPa | 0 mm | - | - | - |
| 1778211130 | 2.78° C | 71% | 1009.5 hPa | 0 mm | - | - | - |
| 1778210230 | 2.78° C | 70% | 1009.6 hPa | 0 mm | - | - | - |
| 1778209329 | 3.33° C | 67% | 1009.6 hPa | 0 mm | - | - | - |
| 1778208429 | 3.89° C | 64% | 1009.7 hPa | 0 mm | - | - | - |
| 1778207530 | 4.44° C | 61% | 1009.6 hPa | 0 mm | - | - | - |
| 1778206630 | 5° C | 60% | 1009.7 hPa | 0 mm | - | - | - |
| 1778205731 | 6.11° C | 58% | 1009.4 hPa | 0 mm | - | - | - |
| 1778204830 | 6.67° C | 54% | 1009.2 hPa | 0 mm | - | - | - |
| 1778203929 | 7.78° C | 53% | 1009.2 hPa | 0 mm | - | - | - |
| 1778203030 | 8.33° C | 53% | 1009.2 hPa | 0 mm | - | - | - |
* Rain latest hour (hover to see other rain measurements)
** Current wind speed in m/s (hover to see current wind gust speed)